Погода в Аральске

Казахстан     46°48′02″N   61°39′22″E
темп.,
°C
ветер,
м/с
пор.,
м/с
влажн.,
%
обл.,
%
осадки,
мм/ч
давл.,
гПа
погр.,
м
2 марта, вт
вт223:00−6сз5769100 0.0 1022400
02:00−7сз5770100 0.0 1023426
05:00−9зсз687467 0.0 1023408
08:00−10зсз58750 0.0 1025439
11:00−7з68690 0.0 1026546
14:00−4з79631 0.0 1025728
17:00−3з710610 0.0 1025808
20:00−4з49740 0.0 1025509
3 марта, ср
ср323:00−5юз35810 0.0 1025160
02:00−4ююз488823 0.0 1023177
05:00−3ююз5109142 0.0 1022161
08:00−2ююз6109858 0.4 1021276
11:00+1ююз7119576 0.9 1021586
14:00+4юз10136994 0.1 10201198
17:00+3юз8127181 0.2 1018845
20:00+1ююз5118367 0.0 1018241
4 марта, чт
чт423:000ю6128733 0.0 1017255
02:00+1ю7138958 0.0 1015283
05:00+1ююз6118976 0.1 1014258
08:00+1юз61184100 0.0 1014351
11:00+1зюз71192100 0.1 1015653
14:00+3з8106997 0.0 1015978
17:00+2з797097 0.1 10161054
20:00−2зсз7107743 0.0 1020630
5 марта, пт
пт523:00−3зсз6107056 0.0 1024747
02:00−4з58700 0.0 1026574
05:00−4зюз47770 0.0 1027380
08:00−5юз47800 0.0 1029251
11:00−1ююз69610 0.0 1029690
14:00+2юз79570 0.0 10281024
17:00+2юз57604 0.0 1026661
20:00−1юз45730 0.0 102589
6 марта, сб
сб623:00−1ююз337731 0.0 102550
02:00−1ююз1277100 0.0 102321
05:00−1ю2373100 0.0 102324
08:00−2ююз117783 0.0 102321
11:00+1зюз006373 0.0 1023248
14:00+3зюз11520 0.0 1021554
17:00+3з22570 0.0 1021268
20:000зюз23680 0.0 102126